IK3CSU Weather Reports


time (UTC)temp
F
wind
direction
speed
knots
gust
knots
rain 1hr
in
rain 24hr
in
rain mn
in
humidity
%
barometer
mb
20260503021510 51 0 0.0 0.0 0.00 0.00 0.00 71 1019.1
20260503020610 51 0 0.0 0.0 0.00 0.00 0.00 70 1019.2
20260503015920 51 360 0.0 1.7 0.00 0.00 0.00 70 1019.1
20260503015022 51 0 0.0 0.0 0.00 0.00 0.00 70 1019.2
20260503013911 51 0 0.0 0.0 0.00 0.00 0.00 69 1019.2
20260503013010 51 360 0.0 1.7 0.00 0.00 0.00 69 1019.1
20260503012324 52 360 0.0 1.7 0.00 0.00 0.00 68 1019.1
20260503011210 52 6 0.0 1.7 0.00 0.00 0.00 68 1019.1
20260503010310 52 360 0.0 0.9 0.00 0.00 0.00 68 1019.1
20260503005621 52 360 0.0 0.9 0.00 0.00 0.00 68 1019.1
20260503004510 53 0 0.0 0.0 0.00 0.00 0.00 67 1019.2
20260503003821 53 0 0.0 0.0 0.00 0.00 0.00 67 1019.2
20260503002923 53 0 0.0 0.0 0.00 0.00 0.00 67 1019.3
20260503002020 53 0 0.0 0.0 0.00 0.00 0.00 68 1019.5
20260503001123 53 0 0.0 0.0 0.00 0.00 0.00 67 1019.5
20260503000010 53 0 0.0 0.0 0.00 0.00 0.00 67 1019.5
20260502235110 53 0 0.0 0.0 0.00 0.00 0.00 66 1019.6
20260502234210 53 0 0.0 0.0 0.00 0.00 0.00 66 1019.7
20260502233522 53 0 0.0 0.0 0.00 0.00 0.00 66 1019.7
20260502232619 52 0 0.0 0.0 0.00 0.00 0.00 66 1019.7
20260502231510 53 0 0.0 0.0 0.00 0.00 0.00 64 1019.7
20260502230610 54 0 0.0 0.0 0.00 0.00 0.00 62 1019.8
20260502225710 54 0 0.0 0.0 0.00 0.00 0.00 61 1019.8
20260502225024 54 0 0.0 0.0 0.00 0.00 0.00 60 1019.9
20260502223910 55 0 0.0 0.0 0.00 0.00 0.00 59 1019.8
20260502223224 55 0 0.0 0.0 0.00 0.00 0.00 59 1019.9
20260502222110 55 0 0.0 0.0 0.00 0.00 0.00 58 1020.0
20260502221424 56 0 0.0 0.0 0.00 0.00 0.00 57 1020.0
20260502215739 57 0 0.0 0.0 0.00 0.00 0.00 54 1019.8
20260502214837 58 0 0.0 0.0 0.00 0.00 0.00 54 1019.8
20260502213939 58 0 0.0 0.0 0.00 0.00 0.00 53 1019.9
20260502213036 58 0 0.0 0.0 0.00 0.00 0.00 52 1019.9
20260502211925 58 315 0.0 1.7 0.00 0.00 0.00 53 1019.7
20260502211236 58 326 0.0 1.7 0.00 0.00 0.00 54 1019.7
20260502210338 58 0 0.0 0.0 0.00 0.00 0.00 54 1019.8
20260502205225 59 0 0.0 0.0 0.00 0.00 0.00 53 1019.8
20260502204325 60 0 0.0 0.0 0.00 0.00 0.00 53 1019.9
20260502203425 60 180 0.0 0.9 0.00 0.00 0.00 51 1019.9
20260502202525 61 0 0.0 0.0 0.00 0.00 0.00 51 1019.9
20260502201625 61 0 0.0 0.0 0.00 0.00 0.00 51 1020.0
20260502200725 61 0 0.0 0.0 0.00 0.00 0.00 51 1020.0
20260502195825 61 0 0.0 0.0 0.00 0.00 0.00 50 1020.0
20260502195137 62 0 0.0 0.0 0.00 0.00 0.00 50 1020.0
20260502194025 62 0 0.0 0.0 0.00 0.00 0.00 49 1019.9
20260502193125 62 0 0.0 0.0 0.00 0.00 0.00 48 1019.9
20260502192439 62 0 0.0 0.0 0.00 0.00 0.00 48 1019.9
20260502191537 63 0 0.0 0.0 0.00 0.00 0.00 47 1019.9
20260502190425 64 0 0.0 0.0 0.00 0.00 0.00 45 1019.9
20260502185525 64 0 0.0 0.0 0.00 0.00 0.00 44 1019.7
20260502184839 64 0 0.0 0.0 0.00 0.00 0.00 43 1019.6
20260502183725 65 0 0.0 0.0 0.00 0.00 0.00 41 1019.6
20260502181925 66 175 0.0 3.5 0.00 0.00 0.00 38 1019.5
20260502181238 67 147 0.0 3.5 0.00 0.00 0.00 38 1019.5
20260502180125 67 153 0.9 3.5 0.00 0.00 0.00 36 1019.5
20260502164236 71 152 2.6 10.4 0.00 0.00 0.00 30 1019.5
20260502163125 73 168 1.7 7.0 0.00 0.00 0.00 28 1019.5
20260502162225 74 157 2.6 7.0 0.00 0.00 0.00 26 1019.6
20260502161538 74 167 3.5 7.8 0.00 0.00 0.00 24 1019.5
20260502160425 77 201 1.7 7.0 0.00 0.00 0.00 19 1019.7
20260502152138 77 230 1.7 7.8 0.00 0.00 0.00 13 1020.2
20260502151025 77 183 1.7 5.2 0.00 0.00 0.00 13 1020.1
20260502150125 77 208 1.7 5.2 0.00 0.00 0.00 14 1020.3
20260502130425 76 220 4.3 9.6 0.00 0.00 0.00 15 1021.8
20260502123726 76 224 1.7 10.4 0.00 0.00 0.00 15 1022.3
20260502123037 75 222 2.6 7.8 0.00 0.00 0.00 15 1022.4
20260502122139 75 214 2.6 7.0 0.00 0.00 0.00 15 1022.5
20260502121237 75 180 1.7 7.0 0.00 0.00 0.00 14 1022.6
20260502120125 75 186 1.7 7.0 0.00 0.00 0.00 15 1022.8
20260502115225 74 239 2.6 9.6 0.00 0.00 0.00 17 1022.9
20260502114325 74 194 2.6 8.7 0.00 0.00 0.00 16 1023.1
20260502113425 74 200 2.6 8.7 0.00 0.00 0.00 16 1023.2
20260502112525 74 231 2.6 10.4 0.00 0.00 0.00 17 1023.3
20260502111625 73 234 2.6 11.3 0.00 0.00 0.00 18 1023.5
20260502110725 73 270 3.5 11.3 0.00 0.00 0.00 18 1023.5
20260502105825 73 227 1.7 7.8 0.00 0.00 0.00 19 1023.6
20260502104925 73 262 2.6 8.7 0.00 0.00 0.00 19 1023.8
20260502104025 73 256 2.6 7.0 0.00 0.00 0.00 20 1023.9
20260502103338 73 219 2.6 7.0 0.00 0.00 0.00 21 1023.9
20260502102225 72 205 2.6 7.8 0.00 0.00 0.00 22 1024.0
20260502101325 71 223 3.5 8.7 0.00 0.00 0.00 21 1024.2
20260502100634 70 225 3.5 7.8 0.00 0.00 0.00 25 1024.3
20260502091239 69 218 0.9 3.5 0.00 0.00 0.00 26 1024.8
20260502090336 69 218 0.9 4.3 0.00 0.00 0.00 26 1024.8
20260502071325 64 89 0.0 1.7 0.00 0.00 0.00 37 1025.5
20260502070636 63 90 0.0 3.5 0.00 0.00 0.00 38 1025.7
20260502065739 62 48 0.0 3.5 0.00 0.00 0.00 38 1025.8
20260502064836 62 82 0.0 3.5 0.00 0.00 0.00 39 1025.8
20260502063938 61 77 0.0 2.6 0.00 0.00 0.00 41 1025.9
20260502062825 61 101 0.0 2.6 0.00 0.00 0.00 43 1025.9
20260502062138 60 78 0.0 3.5 0.00 0.00 0.00 45 1025.8
20260502061235 58 55 0.9 2.6 0.00 0.00 0.00 48 1025.9
20260502060338 56 36 0.9 5.2 0.00 0.00 0.00 50 1025.9
20260502055225 55 22 1.7 3.5 0.00 0.00 0.00 52 1025.7
20260502054325 54 9 1.7 4.3 0.00 0.00 0.00 52 1025.9
20260502053635 53 10 1.7 4.3 0.00 0.00 0.00 55 1025.8
20260502052525 52 45 0.0 0.9 0.00 0.00 0.00 58 1025.7
20260502051834 51 6 0.0 1.7 0.00 0.00 0.00 58 1025.9
20260502050726 50 360 0.0 2.6 0.00 0.00 0.00 59 1025.7
20260502050039 50 3 0.9 3.5 0.00 0.00 0.00 60 1025.6
20260502044925 49 329 0.0 0.9 0.00 0.00 0.00 60 1025.7
20260502044025 49 10 0.0 1.7 0.00 0.00 0.00 60 1025.7
20260502043336 49 2 0.0 1.7 0.00 0.00 0.00 60 1025.7
20260502042225 48 0 0.0 0.0 0.00 0.00 0.00 60 1025.7
20260502041536 48 0 0.0 0.0 0.00 0.00 0.00 59 1025.6
20260502040426 48 360 0.0 0.9 0.00 0.00 0.00 58 1025.8
20260502035525 47 345 0.0 1.7 0.00 0.00 0.00 58 1025.8
20260502034838 47 307 0.0 1.7 0.00 0.00 0.00 58 1025.8
20260502033935 47 0 0.0 0.0 0.00 0.00 0.00 59 1025.6
20260502032825 47 32 0.0 1.7 0.00 0.00 0.00 60 1025.7
20260502031925 46 360 0.0 0.9 0.00 0.00 0.00 61 1025.7
20260502031025 45 0 0.0 0.0 0.00 0.00 0.00 60 1025.8
20260502030125 45 0 0.0 0.0 0.00 0.00 0.00 59 1025.8
20260502025437 46 0 0.0 0.0 0.00 0.00 0.00 59 1025.8
20260502024325 46 0 0.0 0.0 0.00 0.00 0.00 59 1025.8
20260502023637 45 0 0.0 0.0 0.00 0.00 0.00 60 1025.9
20260502022525 44 0 0.0 0.0 0.00 0.00 0.00 60 1026.2
20260502021625 45 0 0.0 0.0 0.00 0.00 0.00 59 1026.0